Time,TemperatureF,DewpointF,PressureIn,WindDirection,WindDirectionDegrees,WindSpeedMPH,WindSpeedGustMPH,Humidity,HourlyPrecipIn,Conditions,Clouds,dailyrainin,SoftwareType,DateUTC
2013-10-28 00:13:00,26.0,18.0,-100.00,NNW,345,13.0,17.0,71,0.00,,,0.00,,2013-10-28 05:13:00,
2013-10-28 00:22:00,26.0,18.0,-100.00,NNW,345,12.0,16.0,71,0.00,,,0.00,,2013-10-28 05:22:00,
2013-10-28 05:23:00,20.0,16.0,-100.00,NNW,330,12.0,16.0,83,0.00,,,0.00,,2013-10-28 10:23:00,
2013-10-28 06:52:00,18.0,14.0,-100.00,NNW,335,10.0,13.0,84,0.00,,,0.00,,2013-10-28 11:52:00,
2013-10-28 08:52:00,19.0,14.0,-100.00,North,5,8.0,12.0,79,0.00,,,0.00,,2013-10-28 13:52:00,
2013-10-28 09:52:00,22.0,16.0,-100.00,NNW,340,11.0,12.0,77,0.00,,,0.00,,2013-10-28 14:52:00,
2013-10-28 10:21:00,24.0,16.0,-100.00,NNE,15,9.0,14.0,74,0.00,,,0.00,,2013-10-28 15:21:00,
2013-10-28 11:13:00,28.0,19.0,-100.00,NNE,15,9.0,14.0,68,0.00,,,0.00,,2013-10-28 16:13:00,
2013-10-28 11:23:00,28.0,18.0,-100.00,North,350,12.0,14.0,66,0.00,,,0.00,,2013-10-28 16:23:00,
2013-10-28 11:32:00,28.0,18.0,-100.00,North,350,12.0,14.0,66,0.00,,,0.00,,2013-10-28 16:32:00,
2013-10-28 11:53:00,30.0,18.0,-100.00,North,10,10.0,16.0,60,0.00,,,0.00,,2013-10-28 16:53:00,
2013-10-28 12:22:00,32.0,18.0,-100.00,NNE,30,10.0,15.0,56,0.00,,,0.00,,2013-10-28 17:22:00,
2013-10-28 12:33:00,32.0,18.0,-100.00,NNE,30,10.0,15.0,56,0.00,,,0.00,,2013-10-28 17:33:00,
2013-10-28 12:52:00,31.0,18.0,-100.00,NNW,340,7.0,13.0,57,0.00,,,0.00,,2013-10-28 17:52:00,
2013-10-28 13:52:00,31.0,16.0,-100.00,North,5,11.0,14.0,51,0.00,,,0.00,,2013-10-28 18:52:00,
2013-10-28 14:52:00,31.0,16.0,-100.00,NNW,340,11.0,20.0,52,0.00,,,0.00,,2013-10-28 19:52:00,
2013-10-28 15:21:00,32.0,14.0,-100.00,NNW,345,10.0,19.0,49,0.00,,,0.00,,2013-10-28 20:21:00,
2013-10-28 15:52:00,32.0,14.0,-100.00,NNW,330,9.0,13.0,48,0.00,,,0.00,,2013-10-28 20:52:00,
2013-10-28 16:53:00,33.0,16.0,-100.00,NNW,335,10.0,14.0,48,0.00,,,0.00,,2013-10-28 21:53:00,
2013-10-28 17:13:00,34.0,16.0,-100.00,NNE,30,7.0,17.0,46,0.00,,,0.00,,2013-10-28 22:13:00,
2013-10-28 20:11:00,22.0,12.0,-100.00,NNW,335,6.0,7.0,68,0.00,,,0.00,,2013-10-29 01:11:00,
2013-10-28 20:21:00,22.0,12.0,-100.00,NNW,335,6.0,7.0,68,0.00,,,0.00,,2013-10-29 01:21:00,
2013-10-28 20:31:00,22.0,12.0,-100.00,NNW,335,6.0,7.0,68,0.00,,,0.00,,2013-10-29 01:31:00,
2013-10-28 20:53:00,21.0,12.0,-100.00,NNW,335,6.0,7.0,69,0.00,,,0.00,,2013-10-29 01:53:00,
2013-10-28 21:44:00,22.0,12.0,-100.00,NNW,335,9.0,10.0,69,0.00,,,0.00,,2013-10-29 02:44:00,
2013-10-28 21:53:00,22.0,12.0,-100.00,NNW,335,9.0,10.0,69,0.00,,,0.00,,2013-10-29 02:53:00,
2013-10-28 22:03:00,22.0,12.0,-100.00,NNW,335,9.0,10.0,69,0.00,,,0.00,,2013-10-29 03:03:00,
2013-10-28 22:40:00,-999.0,-99.9,-100.00,NNW,345,7.0,9.0,68,0.00,,,0.00,,2013-10-29 03:40:00,
2013-10-28 22:55:00,22.0,14.0,-100.00,NNW,340,9.0,9.0,68,0.00,,,0.00,,2013-10-29 03:55:00,
2013-10-28 23:14:00,23.0,14.0,-100.00,NNW,340,9.0,10.0,68,0.00,,,0.00,,2013-10-29 04:14:00,
2013-10-28 23:24:00,23.0,14.0,-100.00,NNW,335,7.0,11.0,68,0.00,,,0.00,,2013-10-29 04:24:00,
2013-10-28 23:43:00,23.0,14.0,-100.00,NNW,345,9.0,11.0,66,0.00,,,0.00,,2013-10-29 04:43:00,
2013-10-28 23:57:00,23.0,14.0,-100.00,NNW,345,9.0,11.0,66,0.00,,,0.00,,2013-10-29 04:57:00,